When you browse on this site, cookies collect data to enhance your experience and personalize the content and advertising you see.
Visit our Privacy Policy to learn more. By continuing to use the site, you agree to this use of cookies and data.
  • In Österreich
  • Länderverzeichnis
  • Für 7 Tage
  • Wassertemperatur
  • Wetterkarte
  • News
  • Widgets
  • user-avatar
    Anmelden

    Stündliche Wetter Lambaréné

    Heute, 28 Januar, Dienstag

    Zeit Temperatur Niederschläge Wind Luftdruck Luftfeuchtigkeit
    00:00 +27°C° 0.2 mm 1 m/S 753 mmHg 93%
    01:00 +27°C° 0 mm 1 m/S 753 mmHg 93%
    02:00 +24°C° 0.6 mm 0 m/S 753 mmHg 94%
    03:00 +24°C° 0.6 mm 0 m/S 753 mmHg 94%
    04:00 +24°C° 0.6 mm 0 m/S 753 mmHg 94%
    05:00 +24°C° 0 mm 0 m/S 753 mmHg 94%
    06:00 +24°C° 0 mm 0 m/S 753 mmHg 93%
    07:00 +25°C° 0 mm 0 m/S 754 mmHg 92%
    08:00 +27°C° 0 mm 0 m/S 754 mmHg 82%
    09:00 +29°C° 0 mm 0 m/S 754 mmHg 71%
    10:00 +32°C° 0 mm 0 m/S 754 mmHg 61%
    11:00 +32°C° 0 mm 0 m/S 754 mmHg 59%
    12:00 +34°C° 0 mm 1 m/S 753 mmHg 56%
    13:00 +34°C° 0 mm 1 m/S 752 mmHg 54%
    14:00 +34°C° 0.2 mm 1 m/S 752 mmHg 56%
    15:00 +35°C° 0.2 mm 2 m/S 751 mmHg 57%
    16:00 +35°C° 0.2 mm 2 m/S 751 mmHg 59%
    17:00 +32°C° 0.2 mm 2 m/S 751 mmHg 66%
    18:00 +30°C° 0.2 mm 2 m/S 751 mmHg 74%
    19:00 +29°C° 0.2 mm 1 m/S 751 mmHg 81%
    20:00 +28°C° 0 mm 2 m/S 752 mmHg 83%
    21:00 +28°C° 0 mm 2 m/S 753 mmHg 85%
    22:00 +27°C° 0 mm 2 m/S 754 mmHg 87%
    23:00 +27°C° 0 mm 1 m/S 753 mmHg 89%

    Morgen, 29 Januar, Mittwoch

    Zeit Temperatur Niederschläge Wind Luftdruck Luftfeuchtigkeit
    00:00 +27°C° 0 mm 1 m/S 753 mmHg 90%
    01:00 +26°C° 0 mm 1 m/S 753 mmHg 91%
    02:00 +26°C° 0 mm 1 m/S 753 mmHg 92%
    03:00 +26°C° 0 mm 1 m/S 753 mmHg 93%
    04:00 +26°C° 0 mm 1 m/S 752 mmHg 94%
    05:00 +24°C° 0 mm 0 m/S 753 mmHg 94%
    06:00 +24°C° 0 mm 0 m/S 753 mmHg 93%
    07:00 +24°C° 0 mm 0 m/S 753 mmHg 93%
    08:00 +26°C° 0 mm 0 m/S 754 mmHg 83%
    09:00 +30°C° 0 mm 1 m/S 754 mmHg 73%
    10:00 +32°C° 0 mm 1 m/S 754 mmHg 63%
    11:00 +33°C° 0 mm 1 m/S 754 mmHg 60%
    12:00 +34°C° 0 mm 1 m/S 753 mmHg 58%
    13:00 +34°C° 0 mm 1 m/S 753 mmHg 55%
    14:00 +34°C° 0.3 mm 1 m/S 752 mmHg 57%
    15:00 +34°C° 0.3 mm 1 m/S 752 mmHg 58%
    16:00 +33°C° 0.3 mm 1 m/S 751 mmHg 60%
    17:00 +32°C° 0.5 mm 1 m/S 752 mmHg 69%
    18:00 +30°C° 0.5 mm 1 m/S 752 mmHg 78%
    19:00 +28°C° 0.5 mm 1 m/S 752 mmHg 86%
    20:00 +27°C° 0.1 mm 1 m/S 753 mmHg 89%
    21:00 +27°C° 0.1 mm 1 m/S 753 mmHg 91%
    22:00 +27°C° 0.1 mm 1 m/S 754 mmHg 93%
    23:00 +26°C° 0 mm 1 m/S 754 mmHg 94%

    übermorgen, 30 Januar, Donnerstag

    Zeit Temperatur Niederschläge Wind Luftdruck Luftfeuchtigkeit
    00:00 +26°C° 0 mm 1 m/S 754 mmHg 95%
    01:00 +26°C° 0 mm 1 m/S 754 mmHg 95%
    02:00 +26°C° 0 mm 1 m/S 754 mmHg 96%
    03:00 +26°C° 0 mm 1 m/S 753 mmHg 96%
    04:00 +26°C° 0 mm 1 m/S 753 mmHg 97%
    05:00 +26°C° 0 mm 1 m/S 753 mmHg 96%
    06:00 +26°C° 0 mm 1 m/S 754 mmHg 96%
    07:00 +26°C° 0 mm 1 m/S 754 mmHg 95%
    08:00 +28°C° 0 mm 1 m/S 754 mmHg 86%
    09:00 +30°C° 0 mm 1 m/S 755 mmHg 77%
    10:00 +32°C° 0 mm 1 m/S 755 mmHg 68%
    11:00 +32°C° 0 mm 1 m/S 755 mmHg 65%
    12:00 +33°C° 0 mm 1 m/S 754 mmHg 61%
    13:00 +34°C° 0 mm 1 m/S 753 mmHg 58%
    14:00 +34°C° 0 mm 1 m/S 753 mmHg 56%
    15:00 +34°C° 0 mm 1 m/S 752 mmHg 54%
    16:00 +34°C° 0 mm 1 m/S 751 mmHg 52%
    17:00 +33°C° 0.2 mm 1 m/S 752 mmHg 60%
    18:00 +31°C° 0.2 mm 1 m/S 752 mmHg 69%
    19:00 +29°C° 0.2 mm 2 m/S 753 mmHg 77%
    20:00 +28°C° 0.2 mm 2 m/S 753 mmHg 82%
    21:00 +27°C° 0.2 mm 2 m/S 754 mmHg 87%
    22:00 +27°C° 0.2 mm 2 m/S 754 mmHg 91%
    23:00 +27°C° 0 mm 2 m/S 754 mmHg 92%

    31 Januar, Freitag

    Zeit Temperatur Niederschläge Wind Luftdruck Luftfeuchtigkeit
    00:00 +26°C° 0 mm 2 m/S 754 mmHg 93%
    01:00 +26°C° 0 mm 2 m/S 754 mmHg 94%
    02:00 +26°C° 0 mm 1 m/S 754 mmHg 94%
    03:00 +26°C° 0 mm 1 m/S 753 mmHg 94%
    04:00 +26°C° 0 mm 1 m/S 753 mmHg 94%
    05:00 +26°C° 0.1 mm 1 m/S 754 mmHg 93%
    06:00 +26°C° 0.1 mm 1 m/S 754 mmHg 93%
    07:00 +26°C° 0.1 mm 1 m/S 754 mmHg 92%
    08:00 +28°C° 0 mm 1 m/S 755 mmHg 86%
    09:00 +29°C° 0 mm 2 m/S 755 mmHg 79%
    10:00 +30°C° 0 mm 2 m/S 755 mmHg 72%
    11:00 +32°C° 0 mm 2 m/S 754 mmHg 65%
    12:00 +33°C° 0 mm 1 m/S 754 mmHg 58%
    13:00 +34°C° 0 mm 1 m/S 753 mmHg 51%
    14:00 +34°C° 0 mm 1 m/S 753 mmHg 52%
    15:00 +34°C° 0 mm 1 m/S 752 mmHg 52%
    16:00 +34°C° 0 mm 1 m/S 751 mmHg 52%
    17:00 +32°C° 0.1 mm 1 m/S 752 mmHg 60%
    18:00 +31°C° 0.1 mm 1 m/S 752 mmHg 67%
    19:00 +29°C° 0.1 mm 1 m/S 752 mmHg 75%
    20:00 +29°C° 0.1 mm 2 m/S 753 mmHg 79%
    21:00 +28°C° 0.1 mm 2 m/S 753 mmHg 82%
    22:00 +28°C° 0.1 mm 2 m/S 754 mmHg 86%
    23:00 +27°C° 0 mm 2 m/S 754 mmHg 87%

    1 Februar, Samstag

    Zeit Temperatur Niederschläge Wind Luftdruck Luftfeuchtigkeit
    00:00 +27°C° 0 mm 1 m/S 754 mmHg 88%
    01:00 +26°C° 0 mm 1 m/S 753 mmHg 89%
    02:00 +26°C° 0 mm 1 m/S 753 mmHg 90%
    03:00 +26°C° 0 mm 1 m/S 753 mmHg 91%
    04:00 +26°C° 0 mm 1 m/S 753 mmHg 92%
    05:00 +26°C° 0 mm 1 m/S 753 mmHg 91%
    06:00 +26°C° 0 mm 1 m/S 754 mmHg 91%
    07:00 +26°C° 0 mm 1 m/S 754 mmHg 91%
    08:00 +27°C° 0 mm 1 m/S 754 mmHg 87%
    09:00 +28°C° 0 mm 1 m/S 755 mmHg 83%
    10:00 +29°C° 0 mm 1 m/S 755 mmHg 78%
    11:00 +30°C° 0 mm 1 m/S 754 mmHg 70%
    12:00 +32°C° 0 mm 1 m/S 754 mmHg 62%
    13:00 +34°C° 0 mm 1 m/S 753 mmHg 54%
    14:00 +33°C° 0.2 mm 1 m/S 752 mmHg 55%
    15:00 +34°C° 0.2 mm 2 m/S 752 mmHg 56%
    16:00 +34°C° 0.2 mm 2 m/S 751 mmHg 57%
    17:00 +31°C° 1.2 mm 2 m/S 751 mmHg 67%
    18:00 +29°C° 1.2 mm 2 m/S 752 mmHg 77%
    19:00 +27°C° 1.2 mm 2 m/S 752 mmHg 88%
    20:00 +27°C° 0.8 mm 2 m/S 753 mmHg 89%
    21:00 +26°C° 0.8 mm 1 m/S 753 mmHg 91%
    22:00 +26°C° 0.8 mm 1 m/S 754 mmHg 93%
    23:00 +26°C° 0 mm 1 m/S 754 mmHg 93%

    2 Februar, Sonntag

    Zeit Temperatur Niederschläge Wind Luftdruck Luftfeuchtigkeit
    00:00 +26°C° 0 mm 1 m/S 754 mmHg 93%
    01:00 +26°C° 0 mm 1 m/S 754 mmHg 94%
    02:00 +26°C° 0 mm 1 m/S 753 mmHg 94%
    03:00 +26°C° 0 mm 1 m/S 753 mmHg 94%
    04:00 +26°C° 0 mm 1 m/S 753 mmHg 94%
    05:00 +26°C° 0 mm 1 m/S 753 mmHg 94%
    06:00 +26°C° 0 mm 1 m/S 753 mmHg 94%
    07:00 +26°C° 0 mm 1 m/S 754 mmHg 94%
    08:00 +28°C° 0 mm 1 m/S 754 mmHg 84%
    09:00 +30°C° 0 mm 1 m/S 754 mmHg 75%
    10:00 +31°C° 0 mm 1 m/S 755 mmHg 65%
    11:00 +33°C° 0 mm 1 m/S 754 mmHg 59%
    12:00 +35°C° 0 mm 2 m/S 754 mmHg 54%
    13:00 +36°C° 0 mm 2 m/S 753 mmHg 48%
    14:00 +36°C° 0.1 mm 2 m/S 752 mmHg 48%
    15:00 +36°C° 0.1 mm 2 m/S 752 mmHg 49%
    16:00 +35°C° 0.1 mm 2 m/S 751 mmHg 50%
    17:00 +32°C° 0.6 mm 2 m/S 752 mmHg 61%
    18:00 +30°C° 0.6 mm 2 m/S 752 mmHg 72%
    19:00 +28°C° 0.6 mm 2 m/S 752 mmHg 82%
    20:00 +27°C° 0.9 mm 2 m/S 753 mmHg 85%
    21:00 +27°C° 0.9 mm 2 m/S 754 mmHg 88%
    22:00 +26°C° 0.9 mm 2 m/S 754 mmHg 91%
    23:00 +26°C° 0.5 mm 2 m/S 754 mmHg 92%
    Mehr zeigen